Погода в Ожидове

Украина / Львовская область     49°57′36″N   24°48′39″E
темп.,
°C
ветер,
м/с
пор.,
м/с
влажн.,
%
обл.,
%
осадки,
мм/ч
давл.,
гПа
погр.,
м
16 октября, сб
сб1600:00+5юз23635 0.0 101835
03:00+4юз34676 0.0 101852
06:00+5ююз3568100 0.0 1017104
09:00+8зюз3969100 0.0 1018360
12:00+12сз56592 0.0 10191107
15:00+14сз454931 0.0 10181604
18:00+10ссз356426 0.0 1019128
21:00+5сз239113 0.0 102236
17 октября, вс
вс1700:00+4з22915 0.0 102212
03:00+3зюз22935 0.0 102325
06:00+2зюз229464 0.0 102316
09:00+5юз2382100 0.0 1023110
12:00+9зюз235995 0.0 1022867
15:00+11з344722 0.0 10211462
18:00+8з2259100 0.0 102010
21:00+6юз2268100 0.0 102110
18 октября, пн
пн1800:00+6юз2370100 0.0 102141
03:00+5юз2372100 0.0 102157
06:00+4юз3481100 0.0 102169
09:00+5юз3782100 0.0 1021229
12:00+10з5863100 0.0 1022917
15:00+12зсз6858100 0.0 10211469
18:00+11з5963100 0.0 1021773
21:00+8з61287100 0.4 1021737
19 октября, вт
вт1900:00+8зсз61290100 0.5 1022884
03:00+7ссз498488 1.1 1024696
06:00+3ссз22955 0.0 102733
09:00+3зсз118897 0.0 102869
12:00+8сз345985 0.0 1029804
15:00+10сз333749 0.0 10281098
18:00+7с114757 0.0 102810
21:00+4юв225396 0.0 102810
20 октября, ср
ср2000:00+3юв335547 0.0 102827
03:00+3ююв365727 0.0 1027102
06:00+4ю41058100 0.0 1025175
09:00+6ю41067100 0.0 1023203
12:00+13ююз6105399 0.0 1021685
15:00+17юз6944100 0.0 10191292
18:00+14юз61350100 0.0 1017638
21:00+11ююз41160100 0.0 1016293